Regional Weather Roundup
Issued by NWS

Home | Current Version | Previous Version | Graphics & Text | Print | Product List | Glossary On
Versions: 1 2 3 4 5 6 7 8 9 10 11 12 13 14 15 16 17 18 19 20 21 22 23 24 25 26 27 28 29 30 31 32 33 34 35 36 37 38 39 40 41 42 43 44 45 46 47 48 49 50
000
ASUS43 KMPX 260401
RWRMN
WEATHER ROUNDUP FOR MINNESOTA
NATIONAL WEATHER SERVICE TWIN CITIES/CHANHASSEN MN
1000 PM CST SAT FEB 25 2017


NOTE: "FAIR" INDICATES FEW OR NO CLOUDS BELOW 12,000 FEET WITH NO
SIGNIFICANT WEATHER AND/OR OBSTRUCTIONS TO VISIBILITY. N/A MEANS
CURRENT SKY AND/OR WEATHER CONDITIONS ARE NOT AVAILABLE.

MNZ060>063-068>070-260500-
   Twin Cities Metro

CITY           SKY/WX    TMP DP  RH WIND       PRES   REMARKS
TWIN CITIES    MOCLDY    26  16  65 SW10      29.84F WCI  16
ST PAUL        PTCLDY    25  17  72 S8        29.85F WCI  16
CRYSTAL        CLOUDY    26  16  65 S10       29.81F WCI  16
BLAINE         PTCLDY    27  19  74 S12       29.81F WCI  16
LAKEVILLE      CLOUDY    23  18  80 SW7       29.85S WCI  15
EDEN PRAIRIE   CLOUDY    25  17  72 S13       29.83S WCI  14
SOUTH ST PAUL  PTCLDY    26  18  72 S8        29.85S WCI  17
LAKE ELMO      FAIR      25  19  80 S13       29.85S WCI  13
$$
MNZ001>005-007-008-013>017-022>024-027-028-260500-
   Northwest Minnesota

CITY           SKY/WX    TMP DP  RH WIND       PRES   REMARKS
BEMIDJI        CLOUDY    20  17  88 W3        29.68S
HALLOCK        CLEAR     10   9  92 CALM      29.74F
ROSEAU         MOCLDY    12   7  79 W6        29.72S WCI   3
WARROAD        PTCLDY    12   7  79 W5        29.71S WCI   4
THIEF RVR FALL FLURRIES  17  12  80 N12       29.72F WCI   4
CROOKSTON      PTCLDY    19  12  73 N12       29.74S WCI   7
FOSSTON        CLOUDY    19  16  86 N5        29.70F WCI  13
DETROIT LAKES  CLOUDY    27  23  86 W3        29.70F
MOORHEAD       PTCLDY    25  19  80 CALM      29.73F
PARK RAPIDS    LGT SNOW  26  22  84 SW5       29.68F FOG     WCI  20
MAHNOMEN       CLOUDY    22  19  87 N6        29.70S WCI  15
$$
MNZ006-009>011-018-025>026-260500-
   North Central Minnesota

CITY           SKY/WX    TMP DP  RH WIND       PRES   REMARKS
BAUDETTE       MOCLDY    16   8  71 NW10      29.68S WCI   4
FLAG ISLAND    CLOUDY    12   9  85 NW12      29.68F WCI  -2
INTL FALLS     MOCLDY    18   8  65 W10       29.67S WCI   6
WASKISH        PTCLDY    10   9  92 W3        29.69F
BIG FORK       PTCLDY    19  16  86 CALM      29.68S
LONGVILLE      FLURRIES  27  21  80 SW3       29.70F
GRAND RAPIDS   CLOUDY    22  19  89 S3        29.71S
CRANE LAKE     CLEAR     16  14  93 CALM      29.69S
ORR            CLEAR     19  12  73 CALM      29.65S
COOK           MOCLDY    21  19  93 W3        29.67F
WALKER         CLOUDY    23  20  88 SW3       29.69S
$$
MNZ012-019>021-037-260500-
   Northeast Minnesota

CITY           SKY/WX    TMP DP  RH WIND       PRES   REMARKS
DULUTH         LGT SNOW  26  23  88 SW9       29.70F FOG     WCI  17
ELY            CLOUDY    19  16  86 CALM      29.66S
HIBBING        CLOUDY    22  18  85 SW3       29.68S
EVELETH        MOCLDY    22  18  81 SW6       29.69S WCI  15
DULUTH HARBOR  LGT SNOW  28  27  93 CALM      29.76S
TWO HARBORS    PTCLDY    21  16  79 W3        29.70S
SILVER BAY     PTCLDY    19  16  86 CALM      29.69F
GRAND MARAIS     N/A     22  13  68 NW3       29.72F
G MARAIS ARPRT FLURRIES  16   9  73 SW3       29.65S
$$
MNZ029>031-032-039>041-046>048-054>057-064-260500-
   West Central Minnesota

CITY           SKY/WX    TMP DP  RH WIND       PRES   REMARKS
FERGUS FALLS   LGT SNOW  25  25 100 CALM      29.75F
WHEATON        LGT SNOW  27  25  93 NW5       29.76S WCI  21
MORRIS         CLOUDY    30  25  80 SW13      29.72S WCI  20
ALEXANDRIA     MOCLDY    28  22  78 SW16G24   29.70F WCI  16
ELBOW LAKE     LGT SNOW  25  25  99 NW5       29.72F WCI  19
WADENA         LGT SNOW  25  23  93 CALM      29.70S VSB 3/4
GLENWOOD       CLOUDY    27  23  86 S15       29.72F WCI  15
APPLETON       PTCLDY    28  21  74 SW7       29.75S WCI  21
BENSON         PTCLDY    30  19  64 W10       29.76S WCI  21
ORTONVILLE       N/A     28  21  74 W5        29.73S WCI  23
MADISON        MOCLDY    30  25  80 SW15G22   29.74F WCI  19
WILLMAR        FAIR      28  21  74 SW5       29.78F WCI  23
$$
MNZ033>034-036-042>043-049>051-058-059-260500-
   Central Minnesota

CITY           SKY/WX    TMP DP  RH WIND       PRES   REMARKS
ST CLOUD       CLOUDY    28  20  71 S17G24    29.76F WCI  16
SAUK CENTRE    CLOUDY    28  21  76 S15       29.73F WCI  16
PAYNESVILLE    CLOUDY    28  21  77 SW13      29.76F WCI  17
AITKIN         LGT SNOW  28  25  86 CALM      29.69F
PINE RIVER     LGT SNOW  25  25 100 CALM      29.74F
BRAINERD       LGT SNOW  27  26  96 S5        29.71F FOG     WCI  22
STAPLES        LGT SNOW  25  25 100 CALM      29.71S
LONG PRAIRIE   MOCLDY    28  21  74 S14       29.71F WCI  17
LITTLE FALLS   CLOUDY    30  21  69 S12       29.74S WCI  21
LITCHFIELD     PTCLDY    27  21  80 S5        29.78F WCI  21
BUFFALO        MOCLDY    27  20  74 S10G17    29.81F WCI  18
MAPLE LAKE     PTCLDY    28  22  78 S6        29.80F WCI  22
HUTCHINSON     CLEAR     27  20  75 S10       29.82S WCI  17
$$
MNZ037-044-045-052-053-260500-
   East Central Minnesota

CITY           SKY/WX    TMP DP  RH WIND       PRES   REMARKS
PRINCETON      CLOUDY    28  21  74 S10G16    29.78S WCI  19
MORA           CLOUDY    30  21  69 SW16G22   29.77S WCI  19
CAMBRIDGE      CLOUDY    30  19  64 S8G16     29.77S WCI  23
RUSH CITY      CLOUDY    28  21  74 S9G16     29.78S WCI  20
MOOSE LAKE     CLOUDY    27  25  93 CALM      29.71F
HINCKLEY       CLOUDY    30  23  74 S10G17    29.75F WCI  21
CLOQUET        LGT SNOW  27  23  86 S3        29.71F VSB 3/4
MCGREGOR       CLOUDY    28  27  93 CALM      29.72S VSB 1/2
$$
MNZ071>073-080-081-089-090-097-098-260500-
   Southwest Minnesota

CITY           SKY/WX    TMP DP  RH WIND       PRES   REMARKS
MONTEVIDEO     CLOUDY    28  21  74 SW14      29.77F WCI  17
GRANITE FALLS  MOCLDY    29  22  75 S14       29.80S WCI  18
CANBY          CLOUDY    28  21  75 SW16G25   29.76S WCI  16
MARSHALL       CLOUDY    27  19  72 SW22G28   29.77F WCI  13
REDWOOD FALLS  CLEAR     25  17  72 S12       29.80F WCI  14
OLIVIA         PTCLDY    28  21  74 S13       29.79S WCI  18
PIPESTONE      CLOUDY    25  18  74 SW13      29.78S WCI  13
WINDOM         CLEAR     23  16  74 S10G18    29.80F WCI  12
WORTHINGTON    CLOUDY    22  17  81 S20       29.80F WCI   7
JACKSON        MOCLDY    21  14  73 S12       29.83F WCI   9
TRACY          CLOUDY    26  20  78 SW21      29.78F WCI  12
SLAYTON        CLOUDY    22  18  84 SW21G28   29.78S WCI   7
$$
MNZ065>067-074>077-082>085-091>093-260500-
   South Central Minnesota

CITY           SKY/WX    TMP DP  RH WIND       PRES   REMARKS
MANKATO          N/A     23  17  78 S13       29.86F WCI  11
NEW ULM        PTCLDY    25  16  68 S10       29.82F WCI  15
ST JAMES       PTCLDY    21  16  79 S10       29.84F WCI  10
FAIRMONT       PTCLDY    21  15  78 S15       29.85F WCI   8
GLENCOE        CLEAR     28  22  79 S12G17    29.81F WCI  17
FARIBAULT      CLOUDY    23  16  74 S8        29.86F WCI  14
OWATONNA       PTCLDY    23  14  68 S14       29.86F WCI  11
WASECA         MOCLDY    23  16  74 S15G21    29.88F WCI  10
ALBERT LEA     CLOUDY    23  16  74 S10       29.88F WCI  12
$$
MNZ078>079-086>088-094>096-260500-
   Southeast Minnesota

CITY           SKY/WX    TMP DP  RH WIND       PRES   REMARKS
ROCHESTER      CLOUDY    20  14  77 S20       29.88F WCI   4
RED WING       MOCLDY    21  12  68 S7        29.88F WCI  13
STANTON        CLOUDY    23  16  74 S8        29.85F WCI  14
WINONA         CLOUDY    23  14  68 CALM      29.95S
AUSTIN         CLOUDY    19  14  79 S9        29.90S WCI   9
PRESTON        CLOUDY    19  13  79 S10G16    29.91F WCI   7
$$
ABBREVIATIONS USED IN REMARKS
   TC - TEMPERATURES IN CELSIUS
  WCI - WIND CHILL INDEX
   HX - HEAT INDEX
  VSB - VISIBILITY
$$




USA.gov is the U.S. government's official web portal to all federal, state and local government web resources and services.